n   0.30596617     Peri.  148.87765     -0.78746950     -0.61623202             
a   2.1811579      Node   353.04221     +0.54267995     -0.68378798             
e   0.5512118      Incl.    5.80052     +0.29221611     -0.39075836             
P   3.22           H   24.28          G   0.15           U   7                  
Residuals in seconds of arc
240303 703  0.0   0.3+    240303 B42  0.2+  0.6-    240303 C43  0.2+  0.2-
240303 703  0.4-  0.3+    240303 B42  0.3+  0.7-    240303 C43  0.0   0.5-
240303 703  0.2-  0.2-    240303 B42  0.3+  0.7-    240303 C43  0.3-  0.5-
240303 703  0.4+  0.2-    240303 C40  0.2-  1.1+    240303 Z80  0.4+  0.5-
240303 I52  0.2-  0.1+    240303 C40  0.1-  1.1+    240303 C43  0.2+  0.1+
240303 I52  0.1-  0.1+    240303 J69  0.2+  0.3+    240303 Z43  0.4-  0.2+
240303 I52  0.1-  0.1-    240303 J69  0.0   0.1-    240303 Z43  0.0   0.2+
240303 I52  0.0   0.2+    240303 J57  0.3+  0.9-    240303 Z43  0.1+  0.1-
240303 734  0.2+  0.1-    240303 J69  0.1-  0.0     240303 L65  0.1+  0.2-
240303 734  0.2+  0.3-    240303 J57  0.1+  0.8-    240303 L65  0.3-  0.2+
240303 734  0.3+  0.4-    240303 I93  0.2+  0.8-    240303 L65  0.0   0.2+
240303 Q06  0.3+  2.2+    240303 B72  0.1-  0.4-    240304 G19  0.3-  1.3-
240303 Q06  0.4+  1.4+    240303 J57  0.4+  1.2-    240304 G19  0.7+  0.3-
240303 Q06  0.4+  0.3+    240303 J69  0.0   0.2-    240304 G19  0.9+  1.4-
240303 900  0.1-  0.2+    240303 I93  0.2-  0.5-    240304 G19  0.3-  0.9-
240303 I52  0.2-  0.2-    240303 B72  0.1-  0.2-    240304 G19  0.0   0.7-
240303 I52  0.1-  0.1+    240303 C40  0.9-  0.3+    240304 G19  0.2-  0.9-
240303 900  0.2+  0.1+    240303 I93  0.4-  0.4-    240304 H21  0.1-  0.3+
240303 I52  0.1-  0.0     240303 B72  0.0   0.4-    240304 H21  0.0   0.0
240303 I52  0.2-  0.1-    240303 L04  0.0   0.3-    240304 H21  0.1-  0.2+
240303 900  0.1+  0.0     240303 L04  0.1+  0.3-    240304 H21  0.0   0.0
240303 C40  1.9-  0.5-    240303 G02  0.1-  0.1+    240304 734  0.5+  0.5-
240303 C40  0.7-  0.4-    240303 L04  0.1+  0.2-    240304 734  0.3+  0.5-
240303 C40  0.2-  0.8+    240303 G02  0.2-  0.1+    240304 734  0.7+  0.2-
240303 C40  0.2-  1.0+    240303 G02  0.6+  0.1+
240303 C40  0.3-  1.2+    240303 Z80  0.6+  0.8-
Ephemeris:
2024 EZ                  a,e,i = 2.18, 0.55, 6                   q = 0.9789
Date    TT    R. A. (2000) Decl.     Delta      r    Elong.  Phase     V
2024 02 03    01 47 10.8 +43 21 09   0.1469  0.9924    88.4    83.1    23.0
...
2024 02 18    01 59 38.8 +50 54 35   0.07996 0.9790    81.2    94.2    22.1
...
2024 02 26    02 30 47.0 +64 02 52   0.04364 0.9874    85.6    91.9    20.7
...
2024 03 03    11 12 37.1 +73 02 49   0.02251 1.0006   113.7    65.1    18.3
2024 03 04    12 08 28.1 +61 36 00   0.02109 1.0033   123.4    55.6    17.9
2024 03 05    12 34 46.2 +48 28 06   0.02080 1.0062   133.4    45.8    17.6
...
2024 03 11    13 16 02.4 -03 36 28   0.03761 1.0266   151.4    27.6    18.4
...
2024 03 19    13 24 14.8 -20 20 35   0.07517 1.0611   149.7    28.3    20.0
...
2024 04 03    13 23 04.7 -26 39 18   0.1551  1.1443   157.2    19.8    21.5
M. P. C. Staff               (C) Copyright 2024 MPC           M.P.E.C. 2024-E43
    
    
More information about the Iaude
mailing list